Content
SEND FEEDBACK

Daily
Averages
Monthly
Summary
United States of America

WRIGHTSVILLE BEACH, NORTH CAROLINA


Home > North America > United States > North Carolina
Elevation: 25 feet     Latitude: 34 16N     Longitude: 077 54W

WEATHER
 
SELECT A DAY
Number of Records: 209,103;   Date Range: 1/1/95 - 9/18/14
 
SHARE

PRINT THIS DATA

[ ← Previous Day ]
WEATHER ALMANAC - APRIL 7, 2013
[ Next Day → ]
[ °C ]   °F
Weather ElementAverageHighLow
Temperature55.9 °F69.1 °F (1:53 pm)39 °F (3:53 am)
Dewpoint46.6 °F53.1 °F (12:53 pm)36 °F (3:53 am)
Humidity73.1 %89 % (1:53 am)51 % (4:53 pm)
Barometer30.22 in30.28 in (9:53 am)30.17 in (4:53 pm)
Wind Speed4.7 mph15 mph (1:53 pm)
Wind Gust19.6 mph (2:53 pm)
Weather ElementAverage
Visibility10 mi
Wind DirectionENE (72.2 °)

Weather ElementTotal
Precipitation---
Heating Degree Days11 (Base 65)
Growing Degree Days4.1 (Base 50)
Averaged from 23 records on April 7, 2013
WEATHER CONDITIONS BREAKOUT
WIND DIRECTION BREAKOUT
WEATHER BY HOUR - APRIL 7, 2013
[ °C ]   °F
Local TimeTemperatureDewpointHumidityBarometerVisibilityWind DirectionWind SpeedGust SpeedPrecipitationEventsConditions
1:53 AM41.0 °F37.9 °F89 %30.25 in10.0 miNE (40°)4.6 mphClear
2:53 AM42.1 °F37.9 °F85 %30.24 in10.0 miCalmClear
3:53 AM39.0 °F36.0 °F89 %30.23 in10.0 miNE (50°)3.5 mphClear
4:53 AM39.9 °F37.0 °F89 %30.23 in10.0 miCalmClear
5:53 AM39.0 °F36.0 °F89 %30.24 in10.0 miCalmClear
6:53 AM39.0 °F36.0 °F89 %30.26 in10.0 miCalmClear
7:53 AM42.1 °F39.0 °F89 %30.27 in10.0 miCalmClear
8:53 AM48.9 °F44.1 °F83 %30.27 in10.0 miCalmClear
9:53 AM57.9 °F48.0 °F70 %30.28 in10.0 miEast (80°)3.5 mphClear
10:53 AM63.0 °F51.1 °F65 %30.28 in10.0 miESE (120°)6.9 mphClear
11:53 AM66.0 °F51.1 °F59 %30.27 in10.0 miEast (100°)8.1 mphClear
12:53 PM68.0 °F53.1 °F59 %30.26 in10.0 miSE (130°)8.1 mphClear
1:53 PM69.1 °F53.1 °F57 %30.23 in10.0 miESE (120°)15.0 mphClear
2:53 PM68.0 °F51.1 °F55 %30.21 in10.0 miSSE (150°)10.4 mph19.6 mphClear
3:53 PM69.1 °F51.1 °F53 %30.19 in10.0 miSSE (150°)9.2 mph19.6 mphClear
4:53 PM69.1 °F50.0 °F51 %30.17 in10.0 miSSE (150°)10.4 mph19.6 mphClear
5:53 PM66.9 °F50.0 °F54 %30.17 in10.0 miSSE (150°)11.5 mph18.4 mphClear
6:53 PM64.9 °F51.1 °F61 %30.17 in10.0 miSSE (150°)8.1 mphClear
7:53 PM62.1 °F52.0 °F70 %30.17 in10.0 miSSE (150°)4.6 mphClear
8:53 PM60.1 °F52.0 °F75 %30.18 in10.0 miESE (120°)3.5 mphClear
9:53 PM59.0 °F52.0 °F78 %30.20 in10.0 miCalmClear
10:53 PM55.9 °F52.0 °F87 %30.20 in10.0 miCalmClear
11:53 PM55.0 °F51.1 °F86 %30.19 in10.0 miCalmClear
Hourly data recorded from KILM, located miles away from Wrightsville Beach, North Carolina







STORIES FROM OUR PARTNERS